#timestamp,LO_Frequency,Hit,StdDev 
1459220415.2,286046994.5,N
1459220435.9,286046994.8,N
1459220455.7,286046994.5,N
1459220475.5,286046994.1,N
1459220495.4,286046993.3,Y
1459220515.2,286047000.7,P
1459220535.0,286047002.8,N
1459220536.0,286047002.8,N
1459220555.8,286047002.7,N
1459220575.6,286047000.5,N
1459220595.4,286047000.0,N
1459220615.3,286047000.3,N
1459220635.1,286046999.4,N
1459220655.8,286046999.5,N
1459220675.7,286046997.0,N
1459220695.5,286046998.6,N
1459220715.3,286046998.3,N
1459220735.2,286046998.1,N
1459220755.9,286047001.5,N
1459220775.7,286047003.7,N
1459220795.6,286047005.5,N
1459220815.4,286047005.3,N
1459220835.2,286047004.1,N
1459220855.1,286047007.4,N
1459220856.0,286047007.4,N
1459220875.8,286047005.6,N
1459220895.6,286047007.0,N
1459220915.4,286047006.1,N
1459220935.3,286047006.6,N
1459220955.1,286047006.8,N
1459220975.8,286047010.5,N
1459220995.7,286047008.0,N
1459221015.5,286047011.1,N
1459221035.3,286047014.5,Y
1459221055.2,286047010.0,P
1459221075.9,286047010.5,P
1459221095.7,286047009.6,N
1459221115.6,286047008.6,N
1459221135.4,286047009.2,Y
1459221155.2,286046995.3,P
1459221175.1,286046997.6,N
1459221176.0,286046997.6,N
1459221195.8,286046997.5,N
1459221215.6,286046997.2,N
1459221235.5,286046995.1,N
1459221255.3,286046996.7,N
1459221275.1,286046996.6,N
1459221295.9,286046995.5,N
1459221315.7,286046995.0,N
1459221335.5,286046995.6,N
1459221355.4,286046997.2,N
1459221375.2,286046999.0,N
1459221395.0,286046999.1,N
1459221395.9,286046999.1,N
1459221415.8,286047000.4,N
1459221435.6,286046999.3,N
1459221455.4,286046995.6,N
1459221475.2,286046997.6,N
1459221495.1,286046997.8,N
1459221496.0,286046997.8,N
1459221515.8,286046998.0,N
1459221535.6,286046997.9,N
1459221555.5,286047000.6,N
1459221575.3,286047002.8,N
1459221595.1,286046997.0,N
1459221615.9,286046999.1,N
1459221635.7,286046999.3,N
1459221655.5,286046999.0,N
1459221675.4,286046995.3,N
1459221695.2,286046995.8,N
1459221715.0,286046996.9,N
1459221715.9,286046996.9,N
1459221735.8,286046997.6,N
1459221755.6,286046999.0,N
1459221775.4,286046998.3,N
1459221795.2,286047002.7,N
1459221815.1,286046998.1,N
1459221816.0,286046998.1,N
1459221835.8,286046995.3,N
1459221855.6,286047000.8,N
1459221875.5,286046998.4,N
1459221895.3,286046995.5,N
1459221915.1,286046995.0,N
1459221935.9,286046996.8,N
1459221955.7,286046999.6,N
1459221975.5,286047001.0,N
1459221995.4,286046998.2,N
1459222015.2,286047000.7,N
1459222035.0,286047001.2,N
1459222035.9,286047001.2,N
1459222055.8,286047000.4,N
1459222075.6,286046998.6,N
1459222095.4,286046998.7,N
1459222115.3,286046998.2,N
1459222135.1,286046997.3,N
1459222136.0,286046997.3,N
1459222155.8,286046999.3,N
1459222175.7,286046997.9,N
1459222195.5,286046997.6,N
1459222215.3,286046995.8,N
1459222235.1,286046995.1,N
1459222255.9,286046994.1,Y
1459222275.7,286046996.8,P
1459222295.5,286046995.9,P
1459222315.4,286046993.5,P
1459222335.2,286046991.7,Y
1459222355.1,286046999.4,P
1459222356.0,286046999.4,N
1459222375.8,286046998.9,N
1459222395.6,286047001.0,N
1459222415.5,286046998.5,N
1459222435.3,286046997.2,N
1459222455.1,286046995.3,Y
1459222475.9,286046998.0,P
1459222495.7,286046993.4,P
1459222515.5,286046997.7,N
1459222535.3,286046999.2,N
1459222555.2,286046997.9,N
1459222575.0,286046996.5,N
1459222575.9,286046996.5,N
1459222595.7,286046997.2,N
1459222615.6,286046995.6,N
1459222635.4,286046995.1,Y
1459222655.2,286046997.0,P
1459222675.1,286047000.8,P
1459222676.0,286047000.8,N
1459222695.8,286046999.3,N
1459222715.6,286046996.7,N
1459222735.5,286047001.0,N
1459222755.3,286047000.7,N
1459222775.1,286046998.7,N
1459222795.9,286046999.1,N
1459222815.7,286046999.6,N
1459222835.5,286046997.0,N
1459222855.4,286047000.7,N
1459222875.2,286047001.8,N
1459222895.0,286047000.0,N
1459222895.9,286047000.0,N
1459222915.8,286047001.4,N
1459222935.6,286047004.1,N
1459222955.4,286047001.7,N
1459222975.2,286047005.7,N
1459222995.1,286047004.5,N
1459222996.0,286047004.5,N
1459223015.8,286047006.8,N
1459223035.7,286047012.0,Y
1459223055.5,286047009.7,P
1459223075.3,286047011.9,N
1459223095.1,286047007.8,N
1459223115.9,286047011.9,N
1459223135.7,286047009.6,N
1459223155.5,286047007.9,N
1459223175.4,286047008.2,N
1459223195.2,286047007.4,N
1459223215.0,286047008.7,N
1459223215.9,286047008.7,N
1459223235.8,286047008.7,Y
1459223255.6,286046999.0,P
1459223275.4,286046998.8,N
1459223295.3,286046998.2,N
1459223315.1,286046999.0,N
1459223316.0,286046999.0,N
1459223335.8,286047000.7,N
1459223355.7,286046998.3,N
1459223375.5,286046998.8,N
1459223395.3,286046996.8,N
1459223415.2,286046999.3,N
1459223435.9,286046997.5,N
1459223455.7,286046995.5,N
1459223475.5,286046994.8,N
1459223495.4,286046994.8,N
1459223515.2,286046992.5,N
1459223535.0,286046993.7,N
1459223535.9,286046993.7,N
1459223555.8,286046997.5,N
1459223575.6,286046997.2,N
1459223595.4,286046997.8,N
1459223615.3,286046998.5,N
1459223635.1,286046999.4,N
1459223636.0,286046999.4,N
1459223655.8,286046998.0,N
1459223675.7,286046997.8,N
1459223695.5,286047001.2,N
1459223715.3,286047001.1,N
1459223735.2,286047004.4,N
1459223755.9,286047003.8,N
1459223775.7,286046999.9,N
1459223795.5,286047000.8,N
1459223815.4,286046996.9,N
1459223835.2,286047001.8,N
1459223855.0,286047003.2,N
1459223855.9,286047003.2,N
1459223875.8,286046999.9,N
1459223895.6,286047001.9,N
1459223915.4,286047002.6,N
1459223935.3,286046998.2,N
1459223955.1,286046998.4,N
1459223956.0,286046998.4,N
1459223975.8,286046997.2,N
1459223995.7,286046996.9,N
